When you browse on this site, cookies collect data to enhance your experience and personalize the content and advertising you see.
Visit our Privacy Policy to learn more. By continuing to use the site, you agree to this use of cookies and data.
  • In Netherlands
  • List of Countries
  • For 7 days
  • Water Temperature
  • Weather Map
  • Weather Widgets
  • user-avatar
    Login

    Hourly Weather Charah

    Today, 14 October, Monday

    Time Temperature Precipitation Wind Pressure Humidity
    00:00 +7°C° 0 mm 2 mps 628 mmHg 41%
    01:00 +8°C° 0 mm 1 mps 628 mmHg 40%
    02:00 +8°C° 0 mm 1 mps 628 mmHg 39%
    03:00 +8°C° 0 mm 1 mps 628 mmHg 38%
    04:00 +8°C° 0 mm 1 mps 628 mmHg 37%
    05:00 +8°C° 0 mm 1 mps 628 mmHg 37%
    06:00 +7°C° 0 mm 1 mps 628 mmHg 36%
    07:00 +10°C° 0 mm 1 mps 629 mmHg 33%
    08:00 +11°C° 0 mm 0 mps 630 mmHg 31%
    09:00 +14°C° 0 mm 0 mps 631 mmHg 28%
    10:00 +16°C° 0 mm 1 mps 631 mmHg 28%
    11:00 +18°C° 0 mm 1 mps 632 mmHg 27%
    12:00 +19°C° 0 mm 1 mps 632 mmHg 27%
    13:00 +18°C° 0 mm 2 mps 632 mmHg 28%
    14:00 +18°C° 0 mm 2 mps 632 mmHg 30%
    15:00 +18°C° 0 mm 2 mps 631 mmHg 32%
    16:00 +16°C° 0 mm 1 mps 631 mmHg 38%
    17:00 +14°C° 0 mm 1 mps 630 mmHg 45%
    18:00 +11°C° 0 mm 1 mps 629 mmHg 52%
    19:00 +11°C° 0 mm 1 mps 629 mmHg 52%
    20:00 +11°C° 0 mm 1 mps 629 mmHg 52%
    21:00 +11°C° 0 mm 1 mps 629 mmHg 52%
    22:00 +10°C° 0 mm 1 mps 629 mmHg 49%
    23:00 +9°C° 0 mm 2 mps 628 mmHg 46%

    Tomorrow, 15 October, Tuesday

    Time Temperature Precipitation Wind Pressure Humidity
    00:00 +9°C° 0 mm 2 mps 628 mmHg 42%
    01:00 +9°C° 0 mm 2 mps 628 mmHg 40%
    02:00 +8°C° 0 mm 2 mps 627 mmHg 38%
    03:00 +8°C° 0 mm 2 mps 627 mmHg 35%
    04:00 +8°C° 0 mm 2 mps 627 mmHg 34%
    05:00 +8°C° 0 mm 3 mps 627 mmHg 32%
    06:00 +8°C° 0 mm 3 mps 626 mmHg 31%
    07:00 +10°C° 0 mm 2 mps 627 mmHg 29%
    08:00 +14°C° 0 mm 2 mps 628 mmHg 27%
    09:00 +16°C° 0 mm 1 mps 629 mmHg 26%
    10:00 +18°C° 0 mm 1 mps 629 mmHg 24%
    11:00 +20°C° 0 mm 1 mps 629 mmHg 22%
    12:00 +21°C° 0 mm 1 mps 630 mmHg 21%
    13:00 +21°C° 0 mm 1 mps 629 mmHg 22%
    14:00 +21°C° 0 mm 1 mps 629 mmHg 23%
    15:00 +21°C° 0 mm 1 mps 628 mmHg 24%
    16:00 +18°C° 0 mm 1 mps 628 mmHg 31%
    17:00 +15°C° 0 mm 1 mps 627 mmHg 37%
    18:00 +13°C° 0 mm 1 mps 626 mmHg 44%
    19:00 +13°C° 0 mm 1 mps 626 mmHg 43%
    20:00 +12°C° 0 mm 1 mps 626 mmHg 43%
    21:00 +12°C° 0 mm 1 mps 626 mmHg 42%
    22:00 +12°C° 0 mm 1 mps 625 mmHg 42%
    23:00 +11°C° 0 mm 1 mps 625 mmHg 42%

    Day after tomorrow, 16 October, Wednesday

    Time Temperature Precipitation Wind Pressure Humidity
    00:00 +11°C° 0 mm 1 mps 625 mmHg 41%
    01:00 +11°C° 0 mm 1 mps 625 mmHg 40%
    02:00 +10°C° 0 mm 1 mps 625 mmHg 39%
    03:00 +10°C° 0 mm 1 mps 625 mmHg 37%
    04:00 +10°C° 0 mm 1 mps 625 mmHg 37%
    05:00 +10°C° 0 mm 1 mps 625 mmHg 36%
    06:00 +9°C° 0 mm 1 mps 625 mmHg 35%
    07:00 +12°C° 0 mm 1 mps 625 mmHg 33%
    08:00 +14°C° 0 mm 1 mps 626 mmHg 30%
    09:00 +15°C° 0 mm 0 mps 627 mmHg 27%
    10:00 +18°C° 0 mm 1 mps 628 mmHg 27%
    11:00 +18°C° 0 mm 1 mps 628 mmHg 26%
    12:00 +18°C° 0 mm 2 mps 628 mmHg 25%
    13:00 +18°C° 0 mm 2 mps 628 mmHg 27%
    14:00 +18°C° 0 mm 2 mps 628 mmHg 28%
    15:00 +18°C° 0 mm 2 mps 627 mmHg 30%
    16:00 +16°C° 0 mm 1 mps 627 mmHg 37%
    17:00 +14°C° 0 mm 1 mps 626 mmHg 44%
    18:00 +10°C° 0 mm 0 mps 625 mmHg 51%
    19:00 +10°C° 0 mm 0 mps 626 mmHg 52%
    20:00 +11°C° 0 mm 1 mps 626 mmHg 52%
    21:00 +10°C° 0 mm 1 mps 626 mmHg 53%
    22:00 +10°C° 0 mm 1 mps 626 mmHg 52%
    23:00 +10°C° 0 mm 1 mps 626 mmHg 51%

    17 October, Thursday

    Time Temperature Precipitation Wind Pressure Humidity
    00:00 +10°C° 0 mm 1 mps 625 mmHg 50%
    01:00 +9°C° 0 mm 1 mps 625 mmHg 48%
    02:00 +9°C° 0 mm 1 mps 625 mmHg 46%
    03:00 +8°C° 0 mm 2 mps 625 mmHg 44%
    04:00 +8°C° 0 mm 2 mps 625 mmHg 43%
    05:00 +7°C° 0 mm 2 mps 625 mmHg 42%
    06:00 +7°C° 0 mm 2 mps 625 mmHg 41%
    07:00 +10°C° 0 mm 1 mps 626 mmHg 38%
    08:00 +13°C° 0 mm 1 mps 627 mmHg 35%
    09:00 +15°C° 0 mm 1 mps 628 mmHg 32%
    10:00 +16°C° 0 mm 1 mps 628 mmHg 32%
    11:00 +18°C° 0 mm 1 mps 628 mmHg 32%
    12:00 +18°C° 0 mm 2 mps 628 mmHg 31%
    13:00 +18°C° 0 mm 2 mps 628 mmHg 33%
    14:00 +18°C° 0 mm 2 mps 628 mmHg 34%
    15:00 +17°C° 0 mm 2 mps 628 mmHg 36%
    16:00 +15°C° 0 mm 1 mps 627 mmHg 43%
    17:00 +13°C° 0 mm 1 mps 626 mmHg 50%
    18:00 +11°C° 0 mm 1 mps 625 mmHg 57%
    19:00 +11°C° 0 mm 1 mps 625 mmHg 55%
    20:00 +11°C° 0 mm 1 mps 625 mmHg 53%
    21:00 +10°C° 0 mm 2 mps 625 mmHg 51%
    22:00 +9°C° 0 mm 2 mps 625 mmHg 49%
    23:00 +9°C° 0 mm 2 mps 624 mmHg 48%

    18 October, Friday

    Time Temperature Precipitation Wind Pressure Humidity
    00:00 +9°C° 0 mm 2 mps 624 mmHg 47%
    01:00 +9°C° 0 mm 2 mps 624 mmHg 47%
    02:00 +9°C° 0 mm 2 mps 623 mmHg 47%
    03:00 +8°C° 0 mm 2 mps 623 mmHg 48%
    04:00 +8°C° 0 mm 2 mps 623 mmHg 49%
    05:00 +8°C° 0 mm 2 mps 623 mmHg 50%
    06:00 +8°C° 0 mm 2 mps 623 mmHg 50%
    07:00 +11°C° 0 mm 1 mps 624 mmHg 46%
    08:00 +14°C° 0 mm 1 mps 625 mmHg 42%
    09:00 +15°C° 0 mm 0 mps 626 mmHg 38%
    10:00 +18°C° 0 mm 1 mps 626 mmHg 36%
    11:00 +19°C° 0 mm 1 mps 626 mmHg 33%
    12:00 +19°C° 0 mm 2 mps 626 mmHg 31%
    13:00 +19°C° 0 mm 2 mps 626 mmHg 32%
    14:00 +19°C° 0 mm 2 mps 626 mmHg 33%
    15:00 +18°C° 0 mm 2 mps 625 mmHg 33%
    16:00 +16°C° 0 mm 1 mps 625 mmHg 40%
    17:00 +14°C° 0 mm 1 mps 624 mmHg 46%
    18:00 +11°C° 0 mm 0 mps 623 mmHg 53%
    19:00 +12°C° 0 mm 1 mps 623 mmHg 51%
    20:00 +12°C° 0 mm 1 mps 624 mmHg 50%
    21:00 +11°C° 0 mm 1 mps 624 mmHg 49%
    22:00 +11°C° 0 mm 1 mps 624 mmHg 48%
    23:00 +11°C° 0 mm 1 mps 624 mmHg 48%

    19 October, Saturday

    Time Temperature Precipitation Wind Pressure Humidity
    00:00 +10°C° 0 mm 1 mps 623 mmHg 48%
    01:00 +10°C° 0 mm 1 mps 623 mmHg 48%
    02:00 +9°C° 0 mm 0 mps 623 mmHg 48%
    03:00 +8°C° 0 mm 0 mps 623 mmHg 49%
    04:00 +8°C° 0 mm 0 mps 624 mmHg 49%
    05:00 +8°C° 0 mm 0 mps 624 mmHg 50%
    06:00 +8°C° 0 mm 0 mps 624 mmHg 50%
    07:00 +10°C° 0 mm 1 mps 625 mmHg 50%
    08:00 +11°C° 0 mm 1 mps 626 mmHg 50%
    09:00 +13°C° 0 mm 1 mps 626 mmHg 51%
    10:00 +13°C° 0.1 mm 1 mps 627 mmHg 50%
    11:00 +14°C° 0.1 mm 2 mps 627 mmHg 50%
    12:00 +15°C° 0.1 mm 2 mps 627 mmHg 50%
    13:00 +15°C° 0 mm 2 mps 627 mmHg 53%
    14:00 +15°C° 0 mm 2 mps 627 mmHg 55%
    15:00 +15°C° 0 mm 2 mps 627 mmHg 57%
    16:00 +13°C° 0 mm 1 mps 627 mmHg 64%
    17:00 +12°C° 0 mm 1 mps 626 mmHg 71%
    18:00 +11°C° 0 mm 1 mps 626 mmHg 78%
    19:00 +10°C° 0 mm 1 mps 626 mmHg 81%
    20:00 +10°C° 0 mm 1 mps 626 mmHg 83%
    21:00 +10°C° 0 mm 1 mps 626 mmHg 85%
    22:00 +9°C° 0.2 mm 1 mps 626 mmHg 86%
    23:00 +9°C° 0.2 mm 1 mps 626 mmHg 86%
    Show more